Location: Stillwell
(40.4602°N, 82.0928°W)
Time: 03:08:51
(UTC-04:00)

Cosmos 836 Rocket - Pass Details

Date: 25 May 2018
Orbit: 758 x 778 km, 74.1° (Epoch: 13 August)

Event Time Altitude Azimuth Distance (km) Brightness Sun altitude
Exits shadow 22:42:49 25° 175° (S) 1,482 5.5 -17.8°
Maximum altitude 22:45:42 59° 105° (ESE) 874 4.5 -18.1°
Drops below altitude 10° 22:50:49 10° 27° (NNE) 2,299 7.3 -18.7°
Sets 22:53:13 0° 24° (NNE) 3,232 8.1 -19.0°
